sat.trackr.live / text

‹ back to catalog

STARLINK-30428

NORAD 57906 · 2023-146R

PAYLOAD ACTIVE UNKNOWN

§ Identity

Operator
Country
US
Launch date
2023-09-20
Launch site
AFETR
Launch vehicle
Mass (kg)
RCS (m²)

Purposes: comms

External: N2YO · Heavens-Above · Gunter

§ Orbital elements

Epoch: 2026-05-24T16:10:19.560000Z

Period
94.27 min
Inclination
43.0035°
Eccentricity
0.0001587
Mean motion
15.27578518 rev/d
Perigee alt
482.0 km
Apogee alt
484.1 km
Semi-major
6,861.2 km
B*
4.8794e-5
RAAN
245.3690°
Arg perigee
264.4756°
Mean anomaly
95.5915°
Rev number
14,761

§ Raw data

STARLINK-304281 57906U 23146R   26144.67383750  .00001081  00000+0  48794-4 0  99942 57906  43.0035 245.3690 0001587 264.4756  95.5915 15.27578518147610

JSON: /api/v1/satellites/57906 · /tle

For live sub-satellite position, see the globe view (requires WebGL).

§ Visibility from observer

Set your observer location to see the next 7 days of passes ≥ 10°. The values pass through the URL so the page stays shareable.

No JS? Fill the form by hand. The geolocation button needs JavaScript.